#timestamp,LO_Frequency,Hit,Temp,Hum 
1493841615.1,286047000.9,N,0.0,0.0
1493841616.0,286047000.9,N,0.0,0.0
1493841635.8,286047003.7,N,0.0,0.0
1493841655.6,286047005.4,N,0.0,0.0
1493841675.5,286047006.9,N,0.0,0.0
1493841695.3,286047003.7,N,0.0,0.0
1493841715.1,286047000.1,N,0.0,0.0
1493841735.9,286047002.8,N,0.0,0.0
1493841755.7,286047000.2,N,0.0,0.0
1493841775.5,286047001.2,N,0.0,0.0
1493841795.2,286047000.9,N,0.0,0.0
1493841815.0,286047000.2,N,0.0,0.0
1493841835.0,286047002.0,N,0.0,0.0
1493841835.9,286047002.0,N,0.0,0.0
1493841855.7,286047004.1,N,0.0,0.0
1493841875.6,286047017.1,N,0.0,0.0
1493841895.4,286047041.5,N,0.0,0.0
1493841915.2,286047040.5,N,0.0,0.0
1493841935.1,286047037.3,N,0.0,0.0
1493841936.0,286047037.3,N,0.0,0.0
1493841955.8,286047036.0,N,0.0,0.0
1493841975.6,286047032.0,N,0.0,0.0
1493841995.5,286047025.4,N,0.0,0.0
1493842015.3,286047027.1,N,0.0,0.0
1493842035.1,286047026.4,N,0.0,0.0
1493842055.9,286047011.4,N,0.0,0.0
1493842075.9,286047003.8,N,0.0,0.0
1493842095.1,286046977.6,N,0.0,0.0
1493842096.0,286046977.6,N,0.0,0.0
1493842115.8,286046957.2,N,0.0,0.0
1493842135.6,286047014.5,N,0.0,0.0
1493842155.5,286047001.8,N,0.0,0.0
1493842175.3,286047001.1,N,0.0,0.0
1493842195.1,286046993.5,N,0.0,0.0
1493842215.8,286047009.2,N,0.0,0.0
1493842235.8,286047002.4,N,0.0,0.0
1493842255.6,286047001.4,N,0.0,0.0
1493842275.5,286047003.1,N,0.0,0.0
1493842295.3,286047002.8,N,0.0,0.0
1493842315.1,286046992.3,N,0.0,0.0
1493842335.9,286046995.2,N,0.0,0.0
1493842355.7,286047001.4,N,0.0,0.0
1493842375.5,286047002.1,N,0.0,0.0
1493842395.4,286047004.3,N,0.0,0.0
1493842415.2,286047002.7,N,0.0,0.0
1493842435.0,286047002.3,N,0.0,0.0
1493842455.8,286047002.4,N,0.0,0.0
1493842475.6,286046997.8,N,0.0,0.0
1493842495.4,286047002.5,N,0.0,0.0
1493842515.3,286047001.9,N,0.0,0.0
1493842535.1,286047001.6,N,0.0,0.0
1493842555.8,286047003.8,N,0.0,0.0
1493842575.7,286047004.2,N,0.0,0.0
1493842595.5,286046999.1,N,0.0,0.0
1493842615.3,286047003.6,N,0.0,0.0
1493842635.6,286047007.5,N,0.0,0.0
1493842655.4,286047002.8,N,0.0,0.0
1493842675.2,286047004.7,N,0.0,0.0
1493842695.1,286047007.7,N,0.0,0.0
1493842696.0,286047007.7,N,0.0,0.0
1493842715.8,286047004.6,N,0.0,0.0
1493842735.6,286047004.9,N,0.0,0.0
1493842755.5,286046996.7,N,0.0,0.0
1493842775.3,286046999.5,N,0.0,0.0
1493842795.1,286047007.6,N,0.0,0.0
1493842815.9,286047003.3,N,0.0,0.0
1493842835.7,286047005.9,N,0.0,0.0
1493842855.6,286047005.8,N,0.0,0.0
1493842875.4,286047001.7,N,0.0,0.0
1493842895.3,286047005.1,N,0.0,0.0
1493842915.1,286047004.8,N,0.0,0.0
1493842916.0,286047004.8,N,0.0,0.0
1493842935.8,286047004.1,N,0.0,0.0
1493842955.1,286047005.5,N,0.0,0.0
1493842956.0,286047005.5,N,0.0,0.0
1493842975.8,286047004.7,N,0.0,0.0
1493842995.6,286047012.7,N,0.0,0.0
1493843015.5,286047009.0,N,0.0,0.0
1493843035.3,286047006.6,N,0.0,0.0
1493843055.1,286047006.1,N,0.0,0.0
1493843075.9,286047006.8,N,0.0,0.0
1493843095.7,286047008.5,N,0.0,0.0
1493843115.5,286047008.8,N,0.0,0.0
1493843135.4,286047007.4,N,0.0,0.0
1493843155.2,286047009.0,N,0.0,0.0
1493843175.0,286047007.3,N,0.0,0.0
1493843195.2,286047006.7,N,0.0,0.0
1493843215.0,286047005.2,N,0.0,0.0
1493843215.9,286047005.2,N,0.0,0.0
1493843235.8,286047005.2,N,0.0,0.0
1493843255.6,286047003.0,N,0.0,0.0
1493843275.4,286047002.9,N,0.0,0.0
1493843295.3,286047007.4,N,0.0,0.0
1493843315.7,286047004.9,N,0.0,0.0
1493843335.3,286047005.2,N,0.0,0.0
1493843355.2,286047005.0,N,0.0,0.0
1493843375.0,286047005.0,N,0.0,0.0
1493843375.9,286047005.0,N,0.0,0.0
1493843395.7,286047003.5,N,0.0,0.0
1493843415.6,286047010.8,N,0.0,0.0
1493843435.4,286047007.6,N,0.0,0.0
1493843455.2,286047005.7,N,0.0,0.0
1493843475.1,286047003.0,N,0.0,0.0
1493843476.0,286047003.0,N,0.0,0.0
1493843495.8,286047001.7,N,0.0,0.0
1493843515.6,286047003.1,N,0.0,0.0
1493843535.4,286047009.1,N,0.0,0.0
1493843555.3,286047010.4,N,0.0,0.0
1493843575.7,286047011.9,N,0.0,0.0
1493843595.5,286047009.3,N,0.0,0.0
1493843615.3,286047007.9,N,0.0,0.0
1493843635.2,286047006.6,N,0.0,0.0
1493843655.9,286047006.3,N,0.0,0.0
1493843675.5,286047009.1,N,0.0,0.0
1493843695.4,286047006.5,N,0.0,0.0
1493843715.2,286047008.5,N,0.0,0.0
1493843735.0,286047007.1,N,0.0,0.0
1493843735.9,286047007.1,N,0.0,0.0
1493843755.8,286047009.0,N,0.0,0.0
1493843775.6,286047009.0,N,0.0,0.0
1493843795.4,286047008.4,N,0.0,0.0
1493843815.3,286047008.0,N,0.0,0.0
1493843835.1,286047006.2,N,0.0,0.0
1493843855.1,286047009.1,N,0.0,0.0
1493843856.0,286047009.1,N,0.0,0.0
1493843875.8,286047006.2,N,0.0,0.0
1493843895.6,286047008.0,N,0.0,0.0
1493843915.5,286047006.9,N,0.0,0.0
1493843935.3,286047006.1,N,0.0,0.0
1493843955.1,286047005.2,N,0.0,0.0
1493843975.9,286047006.6,N,0.0,0.0
1493843995.7,286047007.2,N,0.0,0.0
1493844015.5,286047008.7,N,0.0,0.0
1493844035.4,286047007.3,N,0.0,0.0
1493844055.2,286047006.4,N,0.0,0.0
1493844075.0,286047006.5,N,0.0,0.0
1493844075.9,286047006.5,N,0.0,0.0
1493844095.8,286047009.1,N,0.0,0.0
1493844115.6,286047006.5,N,0.0,0.0
1493844135.4,286047010.7,N,0.0,0.0
1493844155.3,286047004.5,N,0.0,0.0
1493844175.1,286047003.3,N,0.0,0.0
1493844176.0,286047003.3,N,0.0,0.0
1493844195.8,286047003.2,N,0.0,0.0
1493844215.7,286047005.1,N,0.0,0.0
1493844235.5,286047007.3,N,0.0,0.0
1493844255.3,286047005.9,N,0.0,0.0
1493844275.2,286047006.0,N,0.0,0.0
1493844295.9,286047001.3,N,0.0,0.0
1493844315.7,286047014.9,N,0.0,0.0
1493844335.6,286047012.9,N,0.0,0.0
1493844355.4,286047015.4,N,0.0,0.0
1493844375.2,286047013.9,N,0.0,0.0
1493844395.1,286047013.4,N,0.0,0.0
1493844396.0,286047013.4,N,0.0,0.0
1493844415.8,286047007.1,N,0.0,0.0
1493844435.6,286047007.1,N,0.0,0.0
1493844455.5,286047007.1,N,0.0,0.0
1493844475.3,286047003.9,N,0.0,0.0
1493844495.1,286047004.9,N,0.0,0.0
1493844515.8,286047006.2,N,0.0,0.0
1493844535.7,286047008.4,N,0.0,0.0
1493844555.5,286047008.9,N,0.0,0.0
1493844575.3,286047006.2,N,0.0,0.0
1493844595.2,286047008.6,N,0.0,0.0
1493844615.0,286047011.8,N,0.0,0.0
1493844615.9,286047011.8,N,0.0,0.0
1493844635.7,286047010.5,N,0.0,0.0
1493844655.6,286047008.0,N,0.0,0.0
1493844675.4,286047008.9,N,0.0,0.0
1493844695.2,286047006.4,N,0.0,0.0
1493844715.1,286047005.1,N,0.0,0.0
1493844716.0,286047005.1,N,0.0,0.0
1493844735.8,286047005.3,N,0.0,0.0
1493844755.6,286047007.5,N,0.0,0.0
1493844775.5,286047010.2,N,0.0,0.0
1493844795.3,286047007.7,N,0.0,0.0
1493844815.8,286047008.4,N,0.0,0.0
1493844835.7,286047008.7,N,0.0,0.0
1493844855.5,286047013.8,Y,0.0,0.0
1493844875.3,286047003.2,N,0.0,0.0
1493844895.1,286046998.2,N,0.0,0.0
1493844915.9,286047000.5,N,0.0,0.0
1493844935.7,286046997.4,N,0.0,0.0
1493844955.5,286046997.4,N,0.0,0.0
1493844975.4,286046995.6,N,0.0,0.0
1493844995.2,286046995.3,N,0.0,0.0
1493845015.0,286046997.1,N,0.0,0.0
1493845015.9,286046997.1,N,0.0,0.0
1493845035.8,286046997.0,N,0.0,0.0
1493845055.6,286046999.2,N,0.0,0.0
1493845075.4,286046997.6,N,0.0,0.0
1493845095.3,286046997.5,N,0.0,0.0
1493845115.1,286046995.1,N,0.0,0.0
1493845135.8,286046992.1,N,0.0,0.0
1493845155.7,286046991.7,N,0.0,0.0
1493845175.5,286046993.4,N,0.0,0.0
1493845195.8,286046995.5,N,0.0,0.0
